Regional Weather Roundup
Issued by NWS Glasgow, MT

Home | Current Version | Previous Version | Text Only | Print | Product List | Glossary On
Versions: 1 2 3 4 5 6 7 8 9 10 11 12 13 14 15 16 17 18 19 20 21 22 23 24 25 26 27 28
000
ASUS45 KGGW 232315
RWRGGW
HOURLY REGIONAL WEATHER ROUNDUP FOR NORTHEAST MONTANA
NATIONAL WEATHER SERVICE GLASGOW MONTANA
500 PM MDT SAT JUL 23 2016

NOTE: "FAIR" INDICATES FEW OR NO CLOUDS BELOW 12,000 FEET WITH NO
SIGNIFICANT WEATHER AND/OR OBSTRUCTIONS TO VISISBILITY.

NORTHEAST MONTANA


CITY           SKY/WX    TMP DP  RH WIND       PRES   REMARKS
GLASGOW        MOSUNNY   80  49  33 NW25G33   29.92R
PLENTYWOOD       N/A     71  53  52 NW21G33     N/A
WOLF POINT     MOSUNNY   80  50  34 NW20G29   29.90R
JORDAN           N/A     82  46  28 NW21      29.96S
WINNETT          N/A     81  44  27 W18G29      N/A
SIDNEY         SUNNY     83  51  33 NW24G30   29.86R
GLENDIVE       SUNNY     81  47  30 NW21G29   29.92R
OPHEIM           N/A     68  48  49 N18       29.73R

FORT PECK REPORTS


CITY           SKY/WX    TMP DP  RH WIND       PRES   REMARKS
FORT PECK        N/A     81  53  37 NW23G32     N/A
THE PINES        N/A     82  47  29 NW10G18     N/A

SOUTHEAST MONTANA


CITY           SKY/WX    TMP DP  RH WIND       PRES   REMARKS
BILLINGS       MOSUNNY   86  34  15 N14G26    30.01F
MILES CITY     MOSUNNY   86  41  20 NW23G30   29.95S
BAKER          SUNNY     83  43  24 W25G33    29.95S
LIVINGSTON     SUNNY     81  31  16 N17       30.06F

CENTRAL MONTANA


CITY           SKY/WX    TMP DP  RH WIND       PRES   REMARKS
HAVRE          MOSUNNY   79  47  32 NW14G21   29.98S
LEWISTOWN      SUNNY     77  46  33 NW9G20    30.09R
GREAT FALLS    MOSUNNY   81  39  22 SW13G22   30.04F
CUT BANK       MOSUNNY   78  37  22 W15G24    30.05F
HELENA         CLOUDY    83  38  20 W9        30.08R
BUTTE          SUNNY     77  36  22 N10       30.16S
BOZEMAN        MOSUNNY   79  38  22 N10G17    30.09F

WESTERN MONTANA


CITY           SKY/WX    TMP DP  RH WIND       PRES   REMARKS
MISSOULA       MOSUNNY   80  39  23 NW7       30.11F
KALISPELL      NOT AVBL

NORTH DAKOTA


CITY           SKY/WX    TMP DP  RH WIND       PRES   REMARKS
WILLISTON      MOSUNNY   82  53  36 NW20G31   29.84R
DICKINSON      SUNNY     80  46  30 NW20      29.87R
MINOT          SUNNY     85  52  32 W21G28    29.76S
BISMARCK       SUNNY     84  55  36 NW15G24   29.81S

SOUTHERN SASKATCHEWAN


CITY           SKY/WX    TMP DP  RH WIND       PRES   REMARKS
REGINA         MOSUNNY   68  61  77 NW15      29.79R
ESTEVAN        MOSUNNY   73  59  60 W18G30    29.79R
SWIFT CURRENT  MOSUNNY   70  55  60 NW20G29   29.92S





USA.gov is the U.S. government's official web portal to all federal, state and local government web resources and services.